Tracking 30743 objects as of 22-Jun-2025
HD Live streaming from Space Station
objects crossing your sky now

YAOGAN-43 O1E

Track YAOGAN-43 O1E now!
10-day predictions
YAOGAN-43 O1E is classified as:


NORAD ID: 60462
Int'l Code: 2024-148E
Perigee: 495.0 km
Apogee: 504.1 km
Inclination: 35.0 °
Period: 94.5 minutes
Semi major axis: 6870 km
RCS: Unknown
Launch date: August 16, 2024
Source: People's Republic of China (PRC)
Launch site: Xichang Space Center, China (XSC)
Your satellite tracking list
Your tracking list is empty




NASA's NSSDC Master Catalog

Two Line Element Set (TLE):
1 60462U 24148E   25172.98274898  .00010624  22409-7  42070-3 0  9992
2 60462  34.9953 267.1707 0006653 183.7802 176.2864 15.24451773 54026
Source of the keplerian elements: AFSPC